Regional Weather Roundup
Issued by NWS

Home | Current Version | Previous Version | Text Only | Print | Product List | Glossary Off
Versions: 1 2 3 4 5 6 7 8 9 10 11 12 13 14 15 16 17 18 19 20 21 22 23 24 25 26 27 28 29 30 31 32 33 34 35 36 37 38 39 40 41 42 43 44 45 46 47 48 49 50

000
ASUS43 KBIS 240702
RWRND

NORTH DAKOTA REGIONAL WEATHER ROUNDUP
NATIONAL WEATHER SERVICE BISMARCK ND
200 AM CDT TUE MAY 24 2016

NOTE: "FAIR" INDICATES FEW OR NO CLOUDS BELOW 12,000 FEET WITH NO
SIGNIFICANT WEATHER AND/OR OBSTRUCTIONS TO VISIBILITY.


NDZ001>003-009>011-017-240800-
NORTHWEST NORTH DAKOTA

CITY           SKY/WX    TMP DP  RH WIND       PRES   REMARKS
WILLISTON      CLEAR     46  38  73 SW6       29.78R
MINOT          CLOUDY    52  43  71 SW9       29.75S
MINOT AFB      CLOUDY    48  39  71 W9        29.75R
$$

NDZ018>021-031>035-040>046-240800-
SOUTHWEST NORTH DAKOTA

CITY           SKY/WX    TMP DP  RH WIND       PRES   REMARKS
BISMARCK       CLOUDY    58  45  62 NE5       29.76R
DICKINSON      CLEAR     44  34  67 W8        29.80R
GARRISON         N/A     49  42  77 CALM      29.78R
HETTINGER ARPT CLEAR     36  33  89 W6        29.82S
$$

NDZ004>008-012>016-024-026-027-054-240800-
NORTHEAST NORTH DAKOTA

CITY           SKY/WX    TMP DP  RH WIND       PRES   REMARKS
GRAND FORKS    CLOUDY    59  50  72 E6        29.71S
GRND FRKS AFB  CLOUDY    62  51  66 E9        29.72S
DEVILS LAKE    MOCLDY    64  43  46 SW12      29.77R
$$

NDZ022-023-025-028>030-036>039-047>053-240800-
SOUTHEAST NORTH DAKOTA

CITY           SKY/WX    TMP DP  RH WIND       PRES   REMARKS
FARGO          CLOUDY    61  46  57 NE6       29.73R
JAMESTOWN      CLOUDY    57  50  77 NW9       29.78R
$$




USA.gov is the U.S. government's official web portal to all federal, state and local government web resources and services.